#timestamp,LO_Frequency,Hit,StdDev 
1606370415.4,286047003.2,N
1606370435.2,286047003.4,N
1606370455.1,286047001.8,N
1606370456.0,286047001.8,N
1606370475.8,286047000.4,N
1606370495.6,286047001.4,N
1606370515.5,286047001.6,N
1606370535.3,286047001.3,N
1606370555.2,286046999.7,N
1606370575.9,286047000.2,N
1606370595.7,286047002.4,N
1606370615.6,286047002.1,N
1606370635.4,286046998.4,N
1606370655.2,286046997.4,N
1606370675.1,286046997.5,N
1606370676.0,286046997.5,N
1606370695.8,286046996.0,N
1606370715.7,286046995.3,N
1606370735.5,286046997.3,N
1606370755.3,286046998.9,N
1606370775.2,286046997.5,N
1606370795.0,286046996.5,N
1606370795.9,286046996.5,N
1606370815.7,286046997.9,N
1606370835.6,286046995.7,N
1606370855.4,286046995.2,N
1606370875.3,286046998.0,N
1606370895.1,286046997.3,N
1606370896.0,286046997.3,N
1606370915.8,286046999.0,N
1606370935.7,286046998.9,N
1606370955.5,286046996.7,N
1606370975.3,286046995.0,N
1606370995.2,286046998.4,N
1606371015.0,286047002.4,N
1606371015.9,286047002.4,N
1606371035.8,286046998.6,N
1606371055.6,286047000.7,N
1606371075.4,286046999.8,N
1606371095.3,286046999.9,N
1606371115.1,286046998.8,N
1606371135.8,286046995.6,N
1606371155.7,286046991.8,Y
1606371175.5,286046995.2,P
1606371195.4,286046993.6,P
1606371215.2,286046994.5,P
1606371235.0,286046996.1,N
1606371235.9,286046996.1,N
1606371255.8,286046992.1,Y
1606371275.6,286046997.5,P
1606371295.5,286046995.9,P
1606371315.3,286046993.9,P
1606371335.1,286046994.8,Y
1606371355.9,286046997.3,P
1606371375.7,286046995.4,P
1606371395.5,286046997.8,N
1606371415.4,286046999.2,N
1606371435.2,286046998.5,N
1606371455.1,286046998.2,N
1606371456.0,286046998.2,N
1606371475.8,286046998.9,N
1606371495.6,286046996.5,N
1606371515.5,286046997.5,N
1606371535.3,286046995.2,Y
1606371555.1,286046999.1,P
1606371575.9,286046996.9,P
1606371595.7,286046997.1,P
1606371615.6,286046999.2,N
1606371635.4,286046997.0,Y
1606371655.2,286046999.8,P
1606371675.1,286047002.8,P
1606371676.0,286047002.8,N
1606371695.8,286046999.9,N
1606371715.7,286047000.4,N
1606371735.5,286047000.5,N
1606371755.3,286047001.0,N
1606371775.2,286047000.7,N
1606371795.9,286047000.8,N
1606371815.7,286047001.1,N
1606371835.6,286046999.9,N
1606371855.4,286047002.1,N
1606371875.2,286047001.3,N
1606371895.1,286047005.5,Y
1606371896.0,286047005.5,P
1606371915.8,286047001.4,N
1606371935.7,286047001.9,N
1606371955.5,286046999.9,N
1606371975.3,286047001.0,N
1606371995.2,286047001.0,N
1606372015.0,286047000.6,N
1606372015.9,286047000.6,N
1606372035.8,286046999.1,N
1606372055.6,286046999.4,N
1606372075.4,286046998.5,N
1606372095.3,286046996.5,N
1606372115.1,286046997.0,N
1606372135.8,286046997.1,N
1606372155.7,286046997.0,N
1606372175.5,286046995.4,N
1606372195.3,286046994.9,N
1606372215.2,286046997.2,N
1606372235.0,286046995.2,N
1606372235.9,286046995.2,N
1606372255.8,286046996.4,N
1606372275.6,286046994.0,N
1606372295.4,286046991.7,N
1606372315.3,286046990.8,Y
1606372335.1,286046991.8,P
1606372355.9,286046994.5,N
1606372375.7,286046993.5,N
1606372395.5,286046994.6,N
1606372415.4,286046993.5,Y
1606372435.2,286047004.4,P
1606372455.0,286047003.0,N
1606372455.9,286047003.0,N
1606372475.8,286047005.9,N
1606372495.6,286047005.9,N
1606372515.5,286047003.6,N
1606372535.3,286047004.3,N
1606372555.1,286047002.8,N
1606372575.9,286047003.7,N
1606372595.7,286047004.3,N
1606372615.5,286047001.5,N
1606372635.4,286047002.5,N
1606372655.2,286047002.1,N
1606372675.1,286047004.0,N
1606372676.0,286047004.0,N
1606372695.8,286047002.0,N
1606372715.6,286047003.8,N
1606372735.5,286047007.1,N
1606372755.3,286047006.4,N
1606372775.1,286047008.7,Y
1606372795.9,286047004.1,P
1606372815.7,286047001.4,P
1606372835.6,286047005.5,P
1606372855.4,286047001.3,N
1606372875.2,286047001.3,N
1606372895.1,286047002.1,N
1606372896.0,286047002.1,N
1606372915.8,286047002.2,N
1606372935.6,286047001.9,N
1606372955.5,286047002.5,N
1606372975.3,286047001.3,N
1606372995.2,286047001.3,N
1606373015.9,286047001.7,N
1606373035.7,286047004.8,Y
1606373055.6,286047003.8,P
1606373075.4,286047003.6,P
1606373095.2,286047004.0,P
1606373115.1,286047005.1,Y
1606373116.0,286047005.1,P
1606373135.8,286046999.7,N
1606373155.7,286047000.0,N
1606373175.5,286047002.1,N
1606373195.3,286046999.8,N
1606373215.2,286046999.9,N
1606373235.0,286047001.1,N
1606373235.9,286047001.1,N
1606373255.8,286046998.7,N
1606373275.6,286047000.8,N
1606373295.4,286046998.1,N
1606373315.3,286046998.2,N
1606373335.1,286046999.8,N
1606373355.8,286047001.0,N
1606373375.7,286046998.1,N
1606373395.5,286047001.0,N
1606373415.3,286047002.4,N
1606373435.2,286047006.0,Y
1606373455.0,286047003.4,P
1606373455.9,286047003.4,N
1606373475.8,286047001.9,N
1606373495.6,286046999.7,N
1606373515.4,286046999.8,N
1606373535.3,286047000.1,N
1606373555.1,286047000.4,N
1606373575.9,286047004.4,Y
1606373595.7,286047000.0,P
1606373615.5,286047002.4,P
1606373635.4,286047001.9,N
1606373655.2,286047001.7,N
1606373675.0,286047004.3,Y
1606373675.9,286047004.3,P
1606373695.8,286047002.4,N
1606373715.6,286047004.3,P
1606373735.5,286047005.5,Y
1606373755.3,286047002.4,P
1606373775.1,286047001.6,P
1606373795.9,286047001.8,N
1606373815.7,286047002.6,Y
1606373835.5,286046999.3,P
1606373855.4,286047001.1,N
1606373875.2,286046998.1,N
1606373895.1,286046996.7,N
1606373896.0,286046996.7,N
1606373915.8,286046995.6,N
1606373935.6,286046995.1,N
1606373955.5,286046996.3,N
1606373975.3,286046992.3,Y
1606373995.2,286046994.2,P
